Wind_Speed
4 3 2 2 3 5 5 4 5 4 5 4 11 12 21 28 24 22 18 13 9 5 1 4 5 6 8 11 13 17 19 15 13 14 15 16 18 19 17 19 22 23 25 26
2 5 4 2 5 5 4 4 5 1 7 1 9 19 21 26 25 22 18 13 9 5 4 4 4 6 7 10 14 18 15 13 12 15 18 17 19 19 18 20 21 23 24 26
3 2 3 5 6 4 2 2 3 3 4 6 5 16 24 25 23 20 17 14 10 6 5 4 4 4 8 10 15 15 12 10 12 16 19 19 19 18 19 21 21 23 24 25
3 2 1 4 4 3 4 1 2 2 4 5 10 11 15 18 20 18 16 14 10 7 6 4 2 5 7 11 14 11 8 9 11 15 19 18 18 19 20 22 21 22 24 25
4 3 4 2 2 4 5 4 1 7 8 13 15 12 6 12 17 13 13 10 6 6 5 3 2 5 8 12 9 7 8 10 12 15 18 18 18 20 21 21 20 22 24 25
2 4 5 4 2 4 4 4 5 13 16 19 14 3 4 14 15 14 10 7 9 7 5 3 2 5 9 8 5 6 8 10 11 13 17 18 17 19 20 22 20 22 23 24
2 1 7 5 5 3 2 5 13 19 23 24 5 5 8 19 16 10 9 10 8 6 4 1 3 6 7 3 4 6 7 10 11 13 15 16 16 17 20 22 20 23 25 25
3 2 7 11 5 6 6 12 15 18 20 23 11 7 18 19 16 14 11 10 7 6 4 1 4 5 3 2 4 6 6 9 11 12 13 15 17 18 20 22 23 25 25 26
7 5 3 16 3 7 18 20 16 15 18 18 15 17 19 20 16 13 9 8 8 5 4 0 3 2 1 2 3 5 7 9 11 11 13 15 17 18 20 24 26 26 27 28
3 1 1 8 6 14 10 15 13 9 12 13 11 19 20 18 17 13 10 7 8 7 4 1 2 0 1 3 5 7 8 8 9 10 12 15 16 19 21 25 26 25 27 27
1 2 5 7 9 13 12 12 13 12 8 9 11 17 18 18 16 12 8 9 9 7 4 2 1 0 1 1 4 5 7 8 8 10 12 14 17 18 19 22 22 22 23 24
5 12 5 9 12 12 11 12 10 10 13 12 11 14 18 17 14 9 6 9 9 8 5 3 2 1 1 3 4 5 6 8 8 11 12 14 15 16 16 17 19 20 21 20
3 16 6 13 16 13 11 11 11 7 6 12 17 14 17 15 12 9 9 8 8 6 5 4 3 2 3 2 3 4 7 8 9 11 12 13 14 15 15 16 18 20 22 23
13 18 15 17 12 14 13 12 11 9 12 14 16 17 15 13 11 8 9 8 7 5 5 5 3 4 4 4 3 4 6 8 9 11 12 12 14 15 16 17 19 22 24 25
3 1 11 12 18 16 13 12 12 13 14 17 16 15 12 9 7 9 10 9 6 6 6 5 4 5 5 5 6 6 6 7 9 10 11 12 13 14 16 18 20 21 21 23
9 7 11 12 14 14 14 15 12 16 17 16 15 13 10 8 8 10 10 7 5 6 6 6 4 5 4 3 5 6 6 8 9 9 10 11 13 14 16 18 20 21 22 23
8 10 14 15 15 16 14 12 8 15 15 13 12 12 11 11 11 11 12 9 8 7 7 5 4 4 4 4 4 5 5 7 8 8 8 10 12 13 15 16 19 20 21 22
6 8 11 10 15 16 14 12 11 11 10 9 8 11 13 13 11 11 11 10 9 9 8 8 6 5 5 4 4 4 4 5 6 6 7 9 11 12 13 14 16 18 19 19
7 10 11 13 14 13 13 11 10 9 8 6 7 11 12 14 12 11 12 11 10 9 9 9 8 7 6 4 4 2 3 4 5 6 6 7 9 10 11 13 14 16 17 18
10 11 12 14 14 12 11 9 9 9 7 7 8 10 12 14 13 12 12 10 9 10 9 10 10 9 7 6 4 3 2 2 4 5 5 5 7 8 9 11 12 13 15 16
12 14 14 15 13 11 9 7 7 6 5 6 6 9 12 13 14 14 14 12 11 10 10 9 9 9 8 7 5 3 1 1 2 3 3 5 5 6 7 8 10 11 12 13
13 13 14 13 12 11 10 9 8 7 5 7 10 13 15 16 16 14 12 10 11 10 10 11 9 8 7 7 5 3 3 2 0 1 2 3 4 5 6 7 8 8 10 11
11 11 11 10 9 9 9 9 8 8 8 7 9 11 13 13 13 15 14 14 12 10 10 12 11 8 7 6 7 4 4 4 3 2 2 2 3 4 5 5 6 7 8 9
7 6 5 5 4 5 5 6 7 8 8 8 10 12 14 14 14 14 13 12 11 11 10 11 12 11 9 7 8 7 6 5 4 4 3 4 4 4 5 5 5 6 6 7
6 5 4 2 2 1 1 2 4 6 8 10 11 12 13 14 12 12 13 13 11 10 10 11 10 10 10 10 10 9 8 7 6 6 5 6 6 5 6 6 5 5 6 6
2 2 3 3 2 1 0 1 1 2 5 7 9 10 12 14 15 15 16 14 12 11 10 10 10 10 9 10 10 10 10 9 8 8 8 7 7 7 8 7 7 6 6 6
5 4 2 2 2 2 3 2 1 2 2 2 4 8 11 12 15 16 14 15 14 13 11 10 10 11 11 11 11 11 12 12 11 10 10 10 9 9 9 9 9 8 8 7
Wind_Direction
76 30 67 166 181 170 194 191 187 258 236 254 199 179 172 176 176 180 184 187 197 206 263 301 309 311 316 333 343 348 346 349 360 360 358 357 357 356 356 353 354 354 354 356
75 30 50 252 254 249 220 205 252 257 276 357 158 163 167 179 182 188 191 191 190 207 268 265 288 294 320 339 344 345 345 353 3 4 4 4 6 4 1 2 1 358 1 0
195 355 12 310 220 198 184 108 175 236 233 144 158 168 178 182 191 194 195 191 198 224 245 246 279 312 332 338 342 342 346 2 7 9 11 11 12 8 7 6 2 3 5 9
144 49 48 250 311 270 142 126 315 96 132 140 144 136 181 197 193 194 192 190 205 216 208 235 276 320 328 339 339 346 8 12 11 10 12 12 12 12 10 7 6 7 12 13
129 184 293 281 204 154 164 242 305 141 122 138 139 135 117 183 203 196 181 190 192 189 205 213 265 325 333 336 346 9 22 11 11 8 10 12 14 14 12 9 12 14 16 14
89 133 210 234 214 123 105 281 169 156 160 159 152 138 215 174 176 168 173 185 185 184 190 204 308 327 330 339 2 17 18 11 10 6 8 13 15 15 14 13 17 19 20 18
115 189 286 242 160 121 133 234 168 181 176 170 168 187 168 170 164 169 176 175 178 176 180 227 329 329 330 348 7 23 15 11 10 7 10 13 12 11 14 15 19 22 22 21
101 108 279 176 132 180 183 138 168 174 180 182 185 148 158 167 168 164 172 177 179 179 188 235 337 331 316 346 26 17 2 9 7 8 11 13 13 12 13 15 21 22 20 24
179 213 288 178 316 191 157 156 162 171 190 196 186 169 167 169 165 167 174 175 181 199 188 4 349 326 321 27 24 14 11 6 5 9 13 13 13 11 11 14 19 18 19 21
94 290 182 184 164 169 168 158 165 165 163 173 179 171 171 171 166 173 172 188 184 191 195 301 340 344 356 33 38 16 11 13 12 12 15 13 12 9 7 14 15 14 17 19
53 351 127 167 173 172 161 161 162 155 166 179 181 176 181 172 170 174 173 184 188 199 221 267 275 266 22 44 36 9 20 24 18 14 15 13 11 9 11 10 8 15 18 16
217 193 163 183 180 179 179 167 168 165 169 181 190 185 177 171 172 170 183 182 187 196 223 233 204 181 103 74 48 28 29 28 22 17 18 16 15 12 15 14 16 21 26 24
202 172 169 157 166 171 170 165 163 158 169 182 180 176 175 170 171 179 172 169 179 197 197 194 180 135 116 83 61 34 30 23 19 20 22 22 24 30 30 25 26 30 33 33
140 138 124 145 160 173 181 169 165 162 161 171 170 171 167 167 167 173 170 170 177 181 185 189 165 146 113 89 68 53 36 19 21 26 26 30 33 35 34 36 39 41 42 41
132 138 155 159 166 170 169 165 165 162 160 159 160 162 160 151 163 175 178 174 177 176 180 172 154 144 115 86 74 62 42 29 36 38 38 39 41 40 39 42 47 52 53 50
141 127 132 158 164 164 163 163 165 155 156 157 162 161 155 168 173 177 178 173 178 172 165 160 155 150 123 104 75 65 48 45 47 45 44 45 45 41 41 42 44 47 48 47
142 145 166 170 168 160 162 155 152 158 160 166 172 175 180 180 185 180 180 180 171 169 165 169 163 154 137 120 84 71 57 49 50 44 45 48 47 43 42 41 43 43 43 42
227 184 180 192 174 167 159 156 157 162 165 170 186 187 182 188 185 176 176 173 172 174 173 178 173 161 154 134 104 87 63 52 47 42 41 49 47 44 41 41 43 43 43 42
187 170 167 171 178 173 165 163 166 174 183 197 200 195 185 177 175 178 169 173 172 177 176 178 172 170 168 152 132 114 76 56 45 36 29 45 44 40 38 39 40 41 40 40
171 168 159 156 158 170 177 174 181 187 195 207 208 205 183 173 178 174 169 170 169 176 173 175 175 175 174 168 156 142 101 59 49 33 21 34 39 34 32 36 36 37 36 36
156 159 163 164 163 166 170 183 197 201 211 216 212 191 173 176 176 177 180 179 183 175 182 177 182 184 179 177 174 167 160 137 70 36 16 19 28 25 22 26 30 31 31 31
149 155 163 171 176 182 188 195 202 220 231 223 198 185 182 180 181 176 174 181 184 182 188 176 183 193 191 188 182 181 199 208 201 11 3 358 9 7 9 13 17 21 24 25
150 158 166 171 180 188 198 210 218 213 217 216 192 189 189 187 185 182 184 187 183 184 188 180 181 194 198 195 188 201 219 226 232 263 303 322 335 340 345 354 360 5 11 15
135 149 160 169 187 209 223 226 218 210 204 198 190 187 191 190 190 180 184 187 193 195 191 200 193 196 200 202 204 216 226 234 242 255 272 283 293 304 315 325 335 346 352 358
96 108 120 148 166 160 205 219 223 216 211 207 200 196 194 195 192 197 205 198 200 197 193 203 218 220 214 214 216 223 229 238 247 254 262 270 277 283 290 298 307 318 328 336
127 103 76 67 140 74 103 209 286 249 231 230 219 211 207 205 200 202 206 210 215 211 206 204 217 231 236 236 234 234 237 243 250 254 258 264 271 277 280 283 288 295 303 311
80 69 63 21 341 307 275 268 300 16 353 275 237 227 220 220 219 221 221 225 220 214 212 213 222 229 234 240 245 247 247 248 250 254 257 259 263 267 271 274 278 282 287 292
Height
1526 1526 1524 1525 1528 1532 1537 1540 1545 1539 1540 1533 1536 1539 1541 1545 1551 1555 1558 1561 1564 1566 1567 1566 1566 1565 1564 1562 1560 1557 1553 1548 1544 1541 1536 1532 1528 1524 1519 1514 1509 1504 1499 1493
1533 1531 1529 1530 1529 1531 1533 1533 1537 1537 1539 1534 1533 1538 1543 1545 1549 1552 1556 1560 1564 1565 1565 1565 1565 1565 1565 1563 1560 1556 1553 1549 1546 1542 1538 1533 1527 1524 1519 1514 1510 1505 1499 1493
1536 1536 1534 1540 1530 1527 1526 1528 1530 1535 1531 1532 1536 1537 1540 1544 1548 1550 1555 1559 1562 1563 1564 1564 1565 1565 1564 1561 1558 1554 1553 1550 1547 1543 1538 1534 1528 1525 1520 1515 1510 1505 1500 1494
1548 1540 1558 1527 1523 1523 1525 1530 1527 1531 1532 1533 1536 1539 1541 1545 1546 1550 1554 1558 1561 1562 1562 1564 1565 1564 1562 1560 1557 1554 1551 1549 1547 1544 1539 1535 1530 1526 1521 1516 1511 1506 1500 1495
1552 1553 1539 1524 1522 1524 1527 1530 1529 1532 1534 1535 1537 1540 1544 1545 1548 1551 1554 1558 1560 1561 1561 1563 1563 1563 1562 1559 1556 1554 1552 1550 1548 1544 1540 1536 1531 1527 1523 1518 1513 1507 1502 1497
1558 1553 1547 1523 1520 1520 1522 1535 1526 1529 1532 1533 1537 1544 1543 1544 1548 1552 1555 1557 1558 1559 1561 1562 1562 1562 1560 1558 1556 1555 1552 1551 1548 1546 1541 1537 1532 1529 1525 1520 1514 1509 1504 1499
1552 1552 1538 1519 1519 1521 1535 1533 1524 1527 1529 1532 1536 1537 1539 1544 1549 1553 1555 1556 1557 1559 1561 1562 1561 1561 1559 1557 1555 1554 1553 1552 1549 1547 1543 1538 1534 1531 1527 1522 1517 1511 1506 1500
1545 1547 1541 1513 1519 1525 1519 1519 1523 1526 1528 1531 1534 1537 1540 1545 1548 1551 1553 1555 1558 1559 1561 1561 1561 1560 1558 1557 1555 1554 1553 1552 1550 1548 1544 1539 1535 1532 1528 1524 1518 1513 1508 1502
1525 1525 1512 1513 1514 1513 1511 1515 1522 1524 1527 1531 1534 1538 1541 1545 1548 1551 1554 1556 1558 1560 1560 1561 1560 1559 1557 1557 1555 1555 1553 1551 1551 1549 1545 1541 1537 1533 1529 1525 1519 1515 1510 1504
1516 1514 1513 1514 1516 1518 1517 1516 1521 1524 1527 1530 1533 1537 1541 1545 1549 1551 1553 1556 1558 1560 1560 1560 1560 1559 1558 1557 1557 1556 1554 1552 1552 1550 1546 1542 1539 1535 1530 1525 1522 1517 1512 1507
1516 1514 1515 1515 1516 1519 1518 1520 1522 1525 1528 1531 1534 1537 1541 1545 1549 1551 1554 1555 1556 1558 1560 1560 1560 1560 1558 1558 1557 1557 1554 1553 1553 1551 1547 1544 1540 1537 1532 1528 1525 1520 1515 1510
1515 1506 1508 1511 1516 1518 1519 1521 1523 1525 1528 1532 1535 1538 1543 1546 1550 1552 1553 1555 1557 1558 1559 1559 1560 1559 1559 1558 1557 1558 1555 1555 1554 1552 1549 1546 1542 1539 1535 1532 1528 1524 1519 1514
1505 1506 1509 1511 1516 1519 1521 1523 1525 1526 1529 1531 1535 1539 1543 1546 1549 1552 1553 1554 1557 1558 1558 1558 1559 1560 1559 1559 1558 1559 1556 1556 1555 1553 1550 1547 1544 1541 1539 1535 1531 1527 1522 1518
1509 1511 1512 1513 1516 1519 1522 1524 1525 1528 1531 1534 1536 1540 1543 1546 1549 1552 1553 1555 1556 1557 1558 1559 1559 1560 1559 1559 1559 1559 1558 1558 1556 1554 1552 1550 1547 1544 1542 1539 1534 1530 1526 1522
1514 1513 1511 1513 1517 1520 1522 1524 1527 1530 1532 1535 1539 1542 1544 1546 1549 1551 1553 1554 1555 1556 1558 1560 1560 1561 1560 1560 1559 1559 1559 1559 1558 1556 1555 1553 1550 1547 1545 1542 1538 1535 1532 1528
1513 1515 1512 1515 1518 1520 1522 1525 1528 1531 1534 1537 1540 1542 1544 1547 1549 1551 1552 1553 1555 1555 1558 1560 1560 1561 1562 1562 1561 1560 1561 1561 1560 1559 1557 1555 1553 1551 1548 1545 1542 1538 1535 1532
1512 1514 1516 1517 1519 1522 1524 1526 1529 1531 1534 1537 1539 1541 1543 1545 1547 1549 1550 1552 1553 1555 1557 1559 1560 1561 1563 1562 1562 1562 1562 1562 1562 1561 1560 1558 1556 1554 1551 1549 1545 1542 1539 1536
1513 1514 1516 1518 1520 1522 1525 1527 1529 1531 1534 1536 1537 1538 1541 1543 1545 1546 1548 1551 1552 1554 1555 1558 1559 1561 1562 1563 1562 1563 1564 1564 1563 1563 1562 1560 1558 1556 1555 1552 1549 1547 1544 1541
1513 1514 1516 1518 1522 1524 1525 1527 1529 1532 1533 1535 1536 1537 1538 1541 1544 1546 1546 1550 1551 1552 1554 1556 1558 1560 1562 1562 1563 1564 1565 1565 1565 1564 1563 1561 1560 1559 1557 1555 1553 1550 1548 1545
1513 1515 1517 1519 1521 1524 1526 1528 1530 1531 1532 1534 1534 1535 1538 1540 1544 1546 1547 1549 1551 1552 1553 1555 1557 1559 1560 1562 1563 1565 1565 1566 1565 1565 1564 1563 1562 1561 1559 1557 1555 1553 1551 1548
1512 1515 1518 1520 1522 1524 1527 1530 1531 1531 1532 1532 1533 1535 1537 1540 1543 1545 1547 1548 1551 1551 1553 1554 1557 1558 1559 1561 1563 1564 1565 1566 1566 1565 1565 1564 1563 1562 1561 1559 1557 1555 1553 1551
1513 1516 1518 1520 1523 1525 1527 1529 1530 1530 1530 1531 1532 1534 1536 1539 1542 1544 1546 1549 1550 1550 1552 1553 1556 1558 1559 1561 1562 1564 1565 1565 1565 1565 1564 1564 1563 1563 1562 1560 1559 1557 1555 1553
1515 1517 1520 1521 1523 1524 1526 1527 1527 1528 1530 1531 1533 1535 1537 1539 1540 1541 1545 1548 1548 1550 1551 1552 1554 1557 1559 1560 1561 1563 1564 1564 1564 1564 1564 1563 1563 1562 1562 1561 1559 1558 1556 1555
1518 1519 1520 1521 1522 1523 1524 1525 1526 1527 1528 1529 1533 1535 1537 1539 1541 1541 1544 1546 1548 1549 1550 1552 1553 1555 1557 1559 1560 1561 1562 1563 1563 1563 1562 1562 1562 1561 1561 1560 1559 1558 1557 1555
1518 1519 1520 1521 1522 1523 1524 1525 1525 1526 1527 1529 1531 1533 1536 1538 1540 1542 1544 1546 1547 1548 1548 1550 1552 1554 1555 1556 1557 1559 1560 1560 1560 1560 1560 1561 1560 1560 1559 1558 1557 1556 1556 1555
1519 1520 1520 1522 1522 1522 1523 1525 1526 1526 1527 1528 1530 1532 1535 1537 1538 1539 1542 1544 1545 1546 1547 1547 1550 1552 1554 1555 1555 1556 1557 1557 1558 1558 1558 1558 1558 1558 1557 1557 1556 1555 1554 1553
1520 1520 1521 1522 1522 1524 1525 1525 1525 1526 1526 1527 1529 1531 1533 1535 1536 1538 1539 1541 1543 1543 1545 1546 1547 1549 1551 1552 1553 1553 1554 1554 1555 1555 1555 1555 1555 1555 1555 1554 1554 1553 1552 1551